This is the latest recevied weather packets stored in our database for station/object M0JUI-1. If no packets are shown the sender has not sent any weather packets the latest 10 day(s).
| Time | Temp. | Humidity | Pressure | Rain* | Wind** | Luminosity | Snow |
|---|---|---|---|---|---|---|---|
| 1788005324 | 15° C | 8% | 1002.9 hPa | 1.02 mm | - | 196 W/m² | - |
| 1788005024 | 15° C | 8% | 1003 hPa | 1.02 mm | - | 198 W/m² | - |
| 1788004724 | 15.56° C | 7% | 1003.2 hPa | 1.02 mm | - | 191 W/m² | - |
| 1788004425 | 15.56° C | 7% | 1003.1 hPa | 1.27 mm | - | 160 W/m² | - |
| 1788004125 | 16.11° C | 5% | 1003 hPa | 1.02 mm | - | 104 W/m² | - |
| 1788003824 | 16.11° C | 4% | 1003.1 hPa | 1.02 mm | - | 130 W/m² | - |
| 1788003525 | 16.11° C | 3% | 1003 hPa | 0.76 mm | - | 216 W/m² | - |
| 1788003231 | 15.56° C | 2% | 1003.2 hPa | 0.76 mm | - | 205 W/m² | - |
| 1788002924 | 15.56° C | 1% | 1003.3 hPa | 0.76 mm | - | 170 W/m² | - |
| 1788002621 | 16.11° C | 1% | 1003.3 hPa | 0.51 mm | - | 111 W/m² | - |
| 1788002325 | 16.11° C | 1% | 1003.4 hPa | 0.25 mm | - | 127 W/m² | - |
| 1788002024 | 16.11° C | 1% | 1003.3 hPa | 0.25 mm | - | 177 W/m² | - |
| 1788001725 | 16.11° C | 1% | 1003.4 hPa | 0.25 mm | - | 147 W/m² | - |
| 1788001424 | 16.11° C | 1% | 1003.5 hPa | 0.25 mm | - | 147 W/m² | - |
| 1788001124 | 16.11° C | 1% | 1003.5 hPa | 0.25 mm | - | 154 W/m² | - |
| 1788000826 | 16.11° C | 1% | 1003.5 hPa | 0 mm | - | 148 W/m² | - |
| 1788000524 | 16.11° C | 1% | 1003.6 hPa | 0 mm | - | 150 W/m² | - |
| 1788000225 | 15.56° C | 1% | 1003.6 hPa | 0.25 mm | - | 158 W/m² | - |
| 1787999924 | 15.56° C | 4% | 1003.6 hPa | 0.25 mm | - | 180 W/m² | - |
| 1787999624 | 15.56° C | 9% | 1003.7 hPa | 0.25 mm | - | 179 W/m² | - |
| 1787999325 | 15° C | 13% | 1003.8 hPa | 0.25 mm | - | 181 W/m² | - |
| 1787999024 | 15° C | 16% | 1003.9 hPa | 0.25 mm | - | 205 W/m² | - |
| 1787998725 | 15° C | 18% | 1003.9 hPa | 0.51 mm | - | 166 W/m² | - |
| 1787998425 | 15° C | 19% | 1004 hPa | 0.51 mm | - | 168 W/m² | - |
| 1787998124 | 15° C | 19% | 1003.9 hPa | 0.51 mm | - | 133 W/m² | - |
* Rain latest hour (hover to see other rain measurements)
** Current wind speed in m/s (hover to see current wind gust speed)